User: anonymous   Login
Location: Agadir-Ikarkaouin
(31.1503°N, 9.0246°W)
Time: 00:02:52
(UTC+00:00)
Language:

Cosmos 1025 Rocket - Orbit

View from above orbital plane
View from above orbital plane
View from above satellite
View from above satellite

Ground track
Ground track

The orbit data is extracted from the following two-line orbital elements,

1 10974U 78067B   20332.59291498 +.00000137 +00000-0 +12339-4 0  9999
2 10974 082.4845 056.3274 0018642 126.7923 233.5008 14.87371183273648
Epoch (UTC): 27 November 2020 14:13:47
Eccentricity: 0.0018642
inclination: 82.4845°
perigee height: 593 km
apogee height: 619 km
right ascension of ascending node: 56.3274°
argument of perigee: 126.7923°
revolutions per day: 14.87371183
mean anomaly at epoch: 233.5008°
orbit number at epoch: 27364

The dashed part of the orbit path shows where the satellite is in the earth's shadow,  

DLR